Simultaneous Nadir Overpasses (SNOs) Predictions

Prediction of SNOs between GOES-16 and METOP-B Satellite Orbit:

Table of predicted SNOs for the next 14.0 days since TLE Epoch: 8/13/2022
Index Date Time (GOES-16) GOES-16 Lat,Lon METOP-B Lat,Lon Distance(km) Time Diff (sec)
1 08/13/2022 14:16:40 -0.03, -75.20 -0.87, -71.48 424.29 80
2 08/15/2022 02:35:39 0.03, -75.19 -0.15, -76.07 99.55 80
3 08/16/2022 02:12:19 0.03, -75.20 0.93, -71.07 470.66 80
4 08/17/2022 14:31:10 -0.02, -75.23 0.08, -75.63 45.92 80
5 08/20/2022 02:29:30 0.02, -75.25 0.04, -75.23 2.59 80
6 08/22/2022 14:27:41 -0.00, -75.29 -0.12, -74.79 57.15 80
7 08/24/2022 02:49:20 -0.00, -75.31 -0.89, -79.39 464.76 80
8 08/25/2022 02:26:00 0.00, -75.32 0.19, -74.39 106.42 80
9 08/26/2022 14:44:51 -0.00, -75.36 0.80, -78.95 408.68 80
